GOES 17

Last updated on Sat Apr 13 2024 01:02:16 GMT+0100 (British Summer Time)

1 43226U 18022A 24103.51577184 -.00000099 00000+0 00000+0 0 9995 2 43226 0.0356 49.1142 0000961 287.8694 305.1978 1.00271140 22445
UTC large
Height (km)
Speed (km/s)
/
Latitude / Longitude
Inclination (degrees)
Orbital Period (minutes)
Azimuth
Elevation
Range (km)
Doppler Factor

Next 0 passes for location: London (51.5072 / 0.1276)

Sorry there are no passes over London.